Time,TemperatureF,DewpointF,PressureIn,WindDirection,WindDirectionDegrees,WindSpeedMPH,WindSpeedGustMPH,Humidity,HourlyPrecipIn,Conditions,Clouds,dailyrainin,SoftwareType,DateUTC
2013-04-10 00:00:00,36.2,34.7,29.96,ENE,73,9.7,17.0,93,0.01,,,0.04,SSEC-RIG,2013-04-10 05:00:00,
2013-04-10 00:05:00,36.0,34.5,29.95,East,79,14.5,20.8,93,0.00,,,0.04,SSEC-RIG,2013-04-10 05:05:00,
2013-04-10 00:10:00,35.9,34.5,29.94,ENE,75,11.0,16.7,94,0.00,,,0.04,SSEC-RIG,2013-04-10 05:10:00,
2013-04-10 00:15:00,35.8,34.5,29.95,ENE,68,10.0,-999.0,94,0.01,,,0.05,SSEC-RIG,2013-04-10 05:15:00,
2013-04-10 00:20:00,35.6,34.4,29.94,ENE,66,17.4,23.6,94,0.00,,,0.05,SSEC-RIG,2013-04-10 05:20:00,
2013-04-10 00:25:00,35.5,34.3,29.94,ENE,65,15.8,22.9,94,0.01,,,0.06,SSEC-RIG,2013-04-10 05:25:00,
2013-04-10 00:30:00,35.4,34.3,29.96,NE,51,13.4,17.2,94,0.00,,,0.06,SSEC-RIG,2013-04-10 05:30:00,
2013-04-10 00:35:00,35.3,34.1,29.96,NE,47,16.6,20.6,94,0.00,,,0.06,SSEC-RIG,2013-04-10 05:35:00,
2013-04-10 00:40:00,35.2,34.1,29.96,NE,39,14.0,20.9,95,0.00,,,0.06,SSEC-RIG,2013-04-10 05:40:00,
2013-04-10 00:45:00,35.0,34.0,29.97,NE,41,17.5,23.1,95,0.00,,,0.06,SSEC-RIG,2013-04-10 05:45:00,
2013-04-10 00:50:00,35.1,34.0,29.96,NE,44,18.7,24.7,95,0.00,,,0.06,SSEC-RIG,2013-04-10 05:50:00,
2013-04-10 00:55:00,35.0,33.8,29.97,NE,41,19.0,24.3,94,0.01,,,0.07,SSEC-RIG,2013-04-10 05:55:00,
2013-04-10 01:00:00,34.9,33.8,29.97,NE,36,18.0,24.7,94,0.01,,,0.08,SSEC-RIG,2013-04-10 06:00:00,
2013-04-10 01:05:00,34.7,33.6,29.97,NE,34,16.4,22.3,95,0.02,,,0.10,SSEC-RIG,2013-04-10 06:05:00,
2013-04-10 01:10:00,34.6,33.6,29.96,NE,43,20.3,26.3,95,0.01,,,0.11,SSEC-RIG,2013-04-10 06:10:00,
2013-04-10 01:15:00,34.5,33.6,29.94,NE,50,21.1,28.0,95,0.01,,,0.12,SSEC-RIG,2013-04-10 06:15:00,
2013-04-10 01:20:00,34.2,33.3,29.95,NE,39,17.5,27.7,95,0.01,,,0.13,SSEC-RIG,2013-04-10 06:20:00,
2013-04-10 01:25:00,33.7,32.8,29.96,NE,34,15.7,23.3,96,0.00,,,0.13,SSEC-RIG,2013-04-10 06:25:00,
2013-04-10 01:30:00,33.2,32.4,29.96,NE,40,21.6,25.7,96,0.00,,,0.13,SSEC-RIG,2013-04-10 06:30:00,
2013-04-10 01:35:00,33.0,32.1,29.95,NE,50,18.4,22.6,95,0.01,,,0.14,SSEC-RIG,2013-04-10 06:35:00,
2013-04-10 01:40:00,32.8,31.8,29.94,NE,52,18.9,24.1,95,0.01,,,0.15,SSEC-RIG,2013-04-10 06:40:00,
2013-04-10 01:45:00,32.6,31.6,29.93,NE,50,21.3,26.1,95,0.00,,,0.15,SSEC-RIG,2013-04-10 06:45:00,
2013-04-10 01:55:00,32.4,31.2,29.95,NE,47,17.8,21.9,94,0.00,,,0.16,SSEC-RIG,2013-04-10 06:55:00,
2013-04-10 02:00:00,32.3,30.9,29.96,NE,43,18.5,24.7,94,0.00,,,0.16,SSEC-RIG,2013-04-10 07:00:00,
2013-04-10 02:05:00,32.3,30.8,29.95,NE,54,17.8,24.7,93,0.01,,,0.17,SSEC-RIG,2013-04-10 07:05:00,
2013-04-10 02:10:00,32.2,30.7,29.94,ENE,59,18.7,23.5,93,0.01,,,0.18,SSEC-RIG,2013-04-10 07:10:00,
2013-04-10 02:15:00,32.1,30.7,29.94,NE,56,18.2,25.0,93,0.00,,,0.18,SSEC-RIG,2013-04-10 07:15:00,
2013-04-10 02:20:00,32.1,30.7,29.94,NE,49,16.4,26.9,93,0.00,,,0.18,SSEC-RIG,2013-04-10 07:20:00,
2013-04-10 02:25:00,32.1,30.5,29.94,NE,49,19.8,26.4,93,0.00,,,0.18,SSEC-RIG,2013-04-10 07:25:00,
2013-04-10 02:35:00,31.9,30.2,29.95,NE,41,21.1,28.7,92,0.00,,,0.18,SSEC-RIG,2013-04-10 07:35:00,
2013-04-10 02:40:00,31.9,30.1,29.94,NE,44,19.8,27.0,92,0.00,,,0.18,SSEC-RIG,2013-04-10 07:40:00,
2013-04-10 02:45:00,31.8,29.9,29.92,NE,54,21.0,25.4,92,0.00,,,0.18,SSEC-RIG,2013-04-10 07:45:00,
2013-04-10 02:55:00,31.5,29.8,29.93,NE,49,18.8,25.4,92,0.00,,,0.18,SSEC-RIG,2013-04-10 07:55:00,
2013-04-10 03:00:00,31.5,29.5,29.92,NE,50,19.1,26.0,91,0.00,,,0.18,SSEC-RIG,2013-04-10 08:00:00,
2013-04-10 03:05:00,31.5,29.4,29.93,ENE,58,18.3,26.9,91,0.00,,,0.18,SSEC-RIG,2013-04-10 08:05:00,
2013-04-10 03:10:00,31.8,29.5,29.92,ENE,69,16.2,29.8,90,0.00,,,0.18,SSEC-RIG,2013-04-10 08:10:00,
2013-04-10 03:15:00,32.2,29.7,29.92,ENE,74,15.3,32.0,89,0.00,,,0.18,SSEC-RIG,2013-04-10 08:15:00,
2013-04-10 03:20:00,32.3,29.5,29.92,ENE,66,18.4,28.8,88,0.00,,,0.18,SSEC-RIG,2013-04-10 08:20:00,
2013-04-10 03:25:00,32.1,29.3,29.92,ENE,65,17.2,22.9,88,0.00,,,0.18,SSEC-RIG,2013-04-10 08:25:00,
2013-04-10 03:30:00,32.0,29.4,29.92,ENE,63,15.4,21.0,89,0.00,,,0.18,SSEC-RIG,2013-04-10 08:30:00,
2013-04-10 03:35:00,32.1,29.7,29.91,ENE,71,15.3,21.7,90,0.00,,,0.18,SSEC-RIG,2013-04-10 08:35:00,
2013-04-10 03:40:00,32.0,29.8,29.90,ENE,75,18.9,24.6,90,0.00,,,0.18,SSEC-RIG,2013-04-10 08:40:00,
2013-04-10 03:45:00,32.0,30.0,29.91,ENE,71,15.1,23.0,91,0.01,,,0.19,SSEC-RIG,2013-04-10 08:45:00,
2013-04-10 03:50:00,32.0,30.1,29.95,NNE,27,17.5,27.7,92,0.00,,,0.19,SSEC-RIG,2013-04-10 08:50:00,
2013-04-10 03:55:00,32.1,30.3,30.01,North,354,24.3,35.7,92,0.00,,,0.19,SSEC-RIG,2013-04-10 08:55:00,
2013-04-10 04:00:00,31.5,30.0,29.99,North,2,26.3,33.0,93,0.00,,,0.19,SSEC-RIG,2013-04-10 09:00:00,
2013-04-10 04:05:00,31.4,30.0,29.99,NNE,12,23.1,30.5,93,0.00,,,0.19,SSEC-RIG,2013-04-10 09:05:00,
2013-04-10 04:10:00,31.4,30.1,30.00,North,359,24.2,31.2,94,0.00,,,0.19,SSEC-RIG,2013-04-10 09:10:00,
2013-04-10 04:15:00,31.3,30.0,30.00,NNE,12,20.1,27.4,94,0.00,,,0.19,SSEC-RIG,2013-04-10 09:15:00,
2013-04-10 04:20:00,31.2,30.0,29.99,North,11,19.5,26.1,94,0.01,,,0.20,SSEC-RIG,2013-04-10 09:20:00,
2013-04-10 04:30:00,31.1,30.0,30.00,North,8,16.4,25.4,95,0.00,,,0.24,SSEC-RIG,2013-04-10 09:30:00,
2013-04-10 04:35:00,31.2,30.2,30.02,North,8,13.8,20.8,95,0.03,,,0.27,SSEC-RIG,2013-04-10 09:35:00,
2013-04-10 04:40:00,31.1,30.3,29.96,ENE,60,14.2,17.8,95,0.03,,,0.31,SSEC-RIG,2013-04-10 09:40:00,
2013-04-10 04:45:00,31.2,30.4,29.96,ENE,70,12.5,19.7,96,0.02,,,0.33,SSEC-RIG,2013-04-10 09:45:00,
2013-04-10 04:50:00,31.3,30.5,29.96,ENE,71,11.4,19.5,95,0.01,,,0.34,SSEC-RIG,2013-04-10 09:50:00,
2013-04-10 04:55:00,31.5,30.5,29.95,ENE,69,10.9,16.9,95,0.01,,,0.35,SSEC-RIG,2013-04-10 09:55:00,
2013-04-10 05:00:00,31.5,30.4,29.93,ENE,76,12.0,17.0,94,0.02,,,0.37,SSEC-RIG,2013-04-10 10:00:00,
2013-04-10 05:05:00,31.4,30.3,29.91,ENE,74,11.3,20.1,94,0.01,,,0.38,SSEC-RIG,2013-04-10 10:05:00,
2013-04-10 05:10:00,31.6,30.5,29.90,East,95,13.3,19.6,94,0.00,,,0.38,SSEC-RIG,2013-04-10 10:10:00,
2013-04-10 05:20:00,31.3,30.2,29.89,ESE,110,12.8,17.6,94,0.00,,,0.38,SSEC-RIG,2013-04-10 10:20:00,
2013-04-10 05:25:00,31.5,30.5,29.91,ESE,120,6.2,-999.0,95,0.01,,,0.39,SSEC-RIG,2013-04-10 10:25:00,
2013-04-10 05:30:00,31.7,30.5,29.96,NNE,17,6.9,-999.0,94,0.01,,,0.40,SSEC-RIG,2013-04-10 10:30:00,
2013-04-10 05:35:00,31.5,30.1,29.96,NNE,24,9.7,-999.0,94,0.01,,,0.41,SSEC-RIG,2013-04-10 10:35:00,
2013-04-10 05:40:00,31.4,30.1,29.95,NNE,25,10.4,-999.0,94,0.02,,,0.43,SSEC-RIG,2013-04-10 10:40:00,
2013-04-10 05:50:00,31.3,30.1,29.93,NE,39,9.4,-999.0,94,0.02,,,0.47,SSEC-RIG,2013-04-10 10:50:00,
2013-04-10 06:00:00,31.6,30.4,29.96,NE,50,5.5,-999.0,94,0.02,,,0.51,SSEC-RIG,2013-04-10 11:00:00,
2013-04-10 06:05:00,31.4,30.3,29.94,NE,54,8.1,-999.0,94,0.03,,,0.54,SSEC-RIG,2013-04-10 11:05:00,
2013-04-10 06:10:00,31.4,30.2,29.92,ENE,63,7.0,-999.0,94,0.02,,,0.56,SSEC-RIG,2013-04-10 11:10:00,
2013-04-10 06:15:00,31.4,30.3,29.89,ENE,59,8.3,-999.0,95,0.01,,,0.57,SSEC-RIG,2013-04-10 11:15:00,
2013-04-10 06:20:00,31.3,30.3,29.87,ENE,66,7.6,-999.0,95,0.01,,,0.58,SSEC-RIG,2013-04-10 11:20:00,
2013-04-10 06:25:00,31.3,30.4,29.88,NE,48,9.2,-999.0,95,0.00,,,0.58,SSEC-RIG,2013-04-10 11:25:00,
2013-04-10 06:30:00,31.4,30.4,29.87,NE,56,8.0,-999.0,95,0.01,,,0.59,SSEC-RIG,2013-04-10 11:30:00,
2013-04-10 06:35:00,31.3,30.4,29.86,ENE,58,8.0,-999.0,95,0.00,,,0.59,SSEC-RIG,2013-04-10 11:35:00,
2013-04-10 06:45:00,31.6,30.5,29.92,NNE,30,5.1,-999.0,94,0.00,,,0.59,SSEC-RIG,2013-04-10 11:45:00,
2013-04-10 06:50:00,31.8,30.6,29.94,NNE,15,4.4,-999.0,94,0.00,,,0.59,SSEC-RIG,2013-04-10 11:50:00,
2013-04-10 06:55:00,31.8,30.5,29.95,NNE,16,5.5,-999.0,94,0.00,,,0.59,SSEC-RIG,2013-04-10 11:55:00,
2013-04-10 07:00:00,31.7,30.4,29.95,NE,37,5.1,-999.0,94,0.00,,,0.59,SSEC-RIG,2013-04-10 12:00:00,
2013-04-10 07:10:00,31.7,30.3,29.96,NNE,23,6.0,-999.0,94,0.00,,,0.59,SSEC-RIG,2013-04-10 12:10:00,
2013-04-10 07:15:00,31.8,30.5,29.99,NNE,15,4.8,-999.0,94,0.00,,,0.59,SSEC-RIG,2013-04-10 12:15:00,
2013-04-10 07:20:00,31.9,30.4,30.00,North,6,4.2,-999.0,93,0.00,,,0.59,SSEC-RIG,2013-04-10 12:20:00,
2013-04-10 07:30:00,31.6,30.1,29.97,NE,44,5.5,-999.0,93,0.00,,,0.60,SSEC-RIG,2013-04-10 12:30:00,
2013-04-10 07:35:00,31.6,30.0,29.97,NE,44,5.0,-999.0,93,0.00,,,0.60,SSEC-RIG,2013-04-10 12:35:00,
2013-04-10 07:40:00,31.6,30.1,29.95,NE,53,5.1,-999.0,93,0.00,,,0.60,SSEC-RIG,2013-04-10 12:40:00,
2013-04-10 07:45:00,31.6,30.1,29.93,NE,56,5.5,-999.0,93,0.00,,,0.60,SSEC-RIG,2013-04-10 12:45:00,
2013-04-10 07:50:00,31.4,30.0,29.90,ENE,62,7.3,-999.0,93,0.00,,,0.60,SSEC-RIG,2013-04-10 12:50:00,
2013-04-10 07:55:00,31.4,30.1,29.88,ENE,60,8.2,-999.0,94,0.00,,,0.60,SSEC-RIG,2013-04-10 12:55:00,
2013-04-10 08:00:00,31.5,30.2,29.88,ENE,59,7.1,-999.0,94,0.00,,,0.60,SSEC-RIG,2013-04-10 13:00:00,
2013-04-10 08:05:00,32.0,30.6,29.87,ENE,71,6.1,-999.0,94,0.00,,,0.60,SSEC-RIG,2013-04-10 13:05:00,
2013-04-10 08:10:00,32.2,30.6,29.85,ENE,68,6.6,-999.0,92,0.00,,,0.60,SSEC-RIG,2013-04-10 13:10:00,
2013-04-10 08:15:00,32.1,30.4,29.84,ENE,60,8.1,-999.0,93,0.00,,,0.60,SSEC-RIG,2013-04-10 13:15:00,
2013-04-10 08:20:00,32.0,30.4,29.85,ENE,61,7.0,-999.0,93,0.00,,,0.60,SSEC-RIG,2013-04-10 13:20:00,
2013-04-10 08:25:00,32.0,30.6,29.85,ENE,57,7.1,-999.0,93,0.00,,,0.60,SSEC-RIG,2013-04-10 13:25:00,
2013-04-10 08:30:00,32.1,30.6,29.86,ENE,60,6.8,-999.0,93,0.00,,,0.60,SSEC-RIG,2013-04-10 13:30:00,
2013-04-10 08:35:00,32.4,30.9,29.88,ENE,72,5.2,-999.0,93,0.00,,,0.60,SSEC-RIG,2013-04-10 13:35:00,
2013-04-10 08:40:00,32.7,31.2,29.89,East,82,5.1,-999.0,93,0.00,,,0.60,SSEC-RIG,2013-04-10 13:40:00,
2013-04-10 08:50:00,32.9,31.2,29.89,ENE,65,4.0,-999.0,92,0.00,,,0.60,SSEC-RIG,2013-04-10 13:50:00,
2013-04-10 08:55:00,32.9,31.1,29.90,ENE,62,5.5,-999.0,92,0.00,,,0.60,SSEC-RIG,2013-04-10 13:55:00,
2013-04-10 09:00:00,32.8,31.1,29.90,ENE,60,4.8,-999.0,92,0.00,,,0.60,SSEC-RIG,2013-04-10 14:00:00,
2013-04-10 09:05:00,32.9,31.3,29.90,ENE,64,4.3,-999.0,93,0.00,,,0.60,SSEC-RIG,2013-04-10 14:05:00,
2013-04-10 09:10:00,33.0,31.4,29.92,NE,53,4.7,-999.0,93,0.00,,,0.60,SSEC-RIG,2013-04-10 14:10:00,
2013-04-10 09:15:00,33.1,31.5,29.92,NE,54,4.6,-999.0,93,0.00,,,0.60,SSEC-RIG,2013-04-10 14:15:00,
2013-04-10 09:20:00,33.1,31.6,29.91,NE,53,5.2,-999.0,93,0.00,,,0.60,SSEC-RIG,2013-04-10 14:20:00,
2013-04-10 09:25:00,33.2,31.6,29.91,NE,53,5.8,-999.0,93,0.00,,,0.60,SSEC-RIG,2013-04-10 14:25:00,
2013-04-10 09:30:00,33.3,31.8,29.93,NE,39,5.0,-999.0,93,0.00,,,0.60,SSEC-RIG,2013-04-10 14:30:00,
2013-04-10 09:35:00,32.9,31.6,29.93,NNE,19,6.4,-999.0,94,0.00,,,0.60,SSEC-RIG,2013-04-10 14:35:00,
2013-04-10 09:45:00,32.9,31.8,29.94,NE,38,5.6,-999.0,94,0.00,,,0.60,SSEC-RIG,2013-04-10 14:45:00,
2013-04-10 09:50:00,32.9,31.8,29.95,NNE,23,7.5,-999.0,95,0.00,,,0.60,SSEC-RIG,2013-04-10 14:50:00,
2013-04-10 09:55:00,32.9,31.9,29.97,NNE,16,6.5,-999.0,95,0.01,,,0.61,SSEC-RIG,2013-04-10 14:55:00,
2013-04-10 10:00:00,32.9,31.9,29.98,NE,35,4.6,-999.0,95,0.00,,,0.61,SSEC-RIG,2013-04-10 15:00:00,
2013-04-10 10:05:00,32.9,32.0,29.98,NNE,33,6.2,-999.0,95,0.00,,,0.61,SSEC-RIG,2013-04-10 15:05:00,
2013-04-10 10:10:00,32.9,32.0,29.98,NE,36,5.8,-999.0,95,0.01,,,0.62,SSEC-RIG,2013-04-10 15:10:00,
2013-04-10 10:15:00,32.8,32.0,29.97,NE,43,7.2,-999.0,95,0.00,,,0.62,SSEC-RIG,2013-04-10 15:15:00,
2013-04-10 10:20:00,32.9,32.1,29.97,NE,46,7.9,-999.0,96,0.01,,,0.63,SSEC-RIG,2013-04-10 15:20:00,
2013-04-10 10:25:00,33.0,32.2,29.98,NE,44,6.8,-999.0,96,0.00,,,0.63,SSEC-RIG,2013-04-10 15:25:00,
2013-04-10 10:30:00,33.1,32.2,29.99,NE,43,5.9,-999.0,96,0.00,,,0.63,SSEC-RIG,2013-04-10 15:30:00,
2013-04-10 10:35:00,33.1,32.3,29.99,NE,53,5.5,-999.0,96,0.00,,,0.63,SSEC-RIG,2013-04-10 15:35:00,
2013-04-10 10:40:00,33.1,32.2,29.99,ENE,57,7.6,-999.0,95,0.00,,,0.63,SSEC-RIG,2013-04-10 15:40:00,
2013-04-10 10:45:00,33.3,32.4,30.00,NE,51,8.2,-999.0,95,0.00,,,0.63,SSEC-RIG,2013-04-10 15:45:00,
2013-04-10 10:50:00,33.2,32.2,30.01,NE,48,8.6,-999.0,95,0.01,,,0.64,SSEC-RIG,2013-04-10 15:50:00,
2013-04-10 11:00:00,33.2,32.3,30.01,NE,50,11.3,-999.0,95,0.00,,,0.64,SSEC-RIG,2013-04-10 16:00:00,
2013-04-10 11:05:00,33.1,32.1,29.99,NE,54,14.8,17.9,95,0.00,,,0.64,SSEC-RIG,2013-04-10 16:05:00,
2013-04-10 11:15:00,33.0,32.1,29.98,NE,53,15.1,18.6,95,0.00,,,0.64,SSEC-RIG,2013-04-10 16:15:00,
2013-04-10 11:20:00,33.0,32.2,29.97,NE,55,13.9,18.7,96,0.00,,,0.64,SSEC-RIG,2013-04-10 16:20:00,
2013-04-10 11:25:00,32.9,32.1,29.95,NE,46,18.6,22.2,96,0.05,,,0.69,SSEC-RIG,2013-04-10 16:25:00,
2013-04-10 11:30:00,32.6,32.0,29.93,NE,48,19.8,23.9,96,0.00,,,0.69,SSEC-RIG,2013-04-10 16:30:00,
2013-04-10 11:35:00,32.7,32.1,29.93,NE,52,16.2,23.3,97,0.00,,,0.69,SSEC-RIG,2013-04-10 16:35:00,
2013-04-10 11:45:00,32.9,32.3,29.91,NE,46,19.7,26.3,97,0.00,,,0.70,SSEC-RIG,2013-04-10 16:45:00,
2013-04-10 11:50:00,32.9,32.4,29.90,NE,46,21.9,27.6,97,0.00,,,0.70,SSEC-RIG,2013-04-10 16:50:00,
2013-04-10 11:55:00,32.9,32.4,29.89,NE,44,24.4,30.8,97,0.00,,,0.70,SSEC-RIG,2013-04-10 16:55:00,
2013-04-10 12:05:00,33.2,32.7,29.91,NE,50,20.0,29.0,97,0.00,,,0.70,SSEC-RIG,2013-04-10 17:05:00,
2013-04-10 12:10:00,33.3,32.8,29.91,NE,50,20.7,28.7,97,0.00,,,0.70,SSEC-RIG,2013-04-10 17:10:00,
2013-04-10 12:15:00,33.3,32.7,29.91,NE,48,19.1,26.7,96,0.00,,,0.70,SSEC-RIG,2013-04-10 17:15:00,
2013-04-10 12:25:00,33.4,32.6,29.92,NE,47,19.2,25.7,96,0.00,,,0.70,SSEC-RIG,2013-04-10 17:25:00,
2013-04-10 12:30:00,33.3,32.4,29.91,NE,46,21.6,28.2,96,0.00,,,0.70,SSEC-RIG,2013-04-10 17:30:00,
2013-04-10 12:35:00,33.3,32.4,29.91,NE,48,18.6,26.1,96,0.00,,,0.70,SSEC-RIG,2013-04-10 17:35:00,
2013-04-10 12:40:00,33.2,32.3,29.92,NE,53,18.3,25.2,95,0.00,,,0.70,SSEC-RIG,2013-04-10 17:40:00,
2013-04-10 12:45:00,33.2,32.4,29.93,NE,52,17.8,23.8,96,0.00,,,0.70,SSEC-RIG,2013-04-10 17:45:00,
2013-04-10 12:50:00,33.2,32.3,29.93,NE,52,16.9,22.5,96,0.00,,,0.70,SSEC-RIG,2013-04-10 17:50:00,
2013-04-10 12:55:00,33.2,32.4,29.94,ENE,57,16.1,20.8,96,0.00,,,0.70,SSEC-RIG,2013-04-10 17:55:00,
2013-04-10 13:00:00,33.3,32.5,29.94,ENE,64,14.9,22.1,96,0.00,,,0.70,SSEC-RIG,2013-04-10 18:00:00,
2013-04-10 13:05:00,33.3,32.6,29.95,ENE,58,17.2,23.4,96,0.00,,,0.70,SSEC-RIG,2013-04-10 18:05:00,
2013-04-10 13:10:00,33.4,32.6,29.95,ENE,59,14.4,20.2,96,0.00,,,0.70,SSEC-RIG,2013-04-10 18:10:00,
2013-04-10 13:20:00,33.4,32.6,29.94,ENE,63,18.8,22.8,96,0.00,,,0.70,SSEC-RIG,2013-04-10 18:20:00,
2013-04-10 13:25:00,33.4,32.7,29.94,ENE,57,17.3,24.1,96,0.00,,,0.70,SSEC-RIG,2013-04-10 18:25:00,
2013-04-10 13:35:00,33.7,32.8,29.95,NE,53,16.6,22.0,95,0.00,,,0.70,SSEC-RIG,2013-04-10 18:35:00,
2013-04-10 13:40:00,33.9,32.9,29.96,NE,46,15.2,21.1,95,0.00,,,0.70,SSEC-RIG,2013-04-10 18:40:00,
2013-04-10 13:45:00,34.2,32.8,29.97,NE,51,14.0,20.8,94,0.00,,,0.70,SSEC-RIG,2013-04-10 18:45:00,
2013-04-10 13:50:00,34.2,32.7,29.97,NE,41,15.8,19.9,93,0.00,,,0.70,SSEC-RIG,2013-04-10 18:50:00,
2013-04-10 13:55:00,34.3,32.8,29.97,NE,41,15.9,21.2,93,0.00,,,0.70,SSEC-RIG,2013-04-10 18:55:00,
2013-04-10 14:00:00,34.3,32.8,29.98,NE,43,15.5,21.3,93,0.00,,,0.70,SSEC-RIG,2013-04-10 19:00:00,
2013-04-10 14:05:00,34.3,32.7,29.99,NE,45,14.5,19.0,93,0.00,,,0.70,SSEC-RIG,2013-04-10 19:05:00,
2013-04-10 14:10:00,34.2,32.7,30.00,NE,43,12.7,-999.0,93,0.00,,,0.70,SSEC-RIG,2013-04-10 19:10:00,
2013-04-10 14:15:00,34.1,32.6,30.00,NE,44,13.5,17.9,93,0.00,,,0.70,SSEC-RIG,2013-04-10 19:15:00,
2013-04-10 14:20:00,34.2,32.8,30.00,NE,56,12.8,19.2,93,0.00,,,0.70,SSEC-RIG,2013-04-10 19:20:00,
2013-04-10 14:25:00,34.0,32.6,30.00,ENE,58,15.3,19.7,94,0.01,,,0.71,SSEC-RIG,2013-04-10 19:25:00,
2013-04-10 14:35:00,33.9,32.8,30.00,ENE,58,13.1,16.8,94,0.01,,,0.73,SSEC-RIG,2013-04-10 19:35:00,
2013-04-10 14:40:00,34.0,32.9,29.99,NE,55,13.7,17.0,95,0.00,,,0.73,SSEC-RIG,2013-04-10 19:40:00,
2013-04-10 14:50:00,34.2,33.1,29.99,NE,52,12.4,16.4,95,0.01,,,0.74,SSEC-RIG,2013-04-10 19:50:00,
2013-04-10 14:55:00,34.3,33.2,29.98,NE,50,13.5,17.9,95,0.00,,,0.74,SSEC-RIG,2013-04-10 19:55:00,
2013-04-10 15:00:00,34.4,33.4,29.98,NE,53,13.1,18.4,95,0.00,,,0.74,SSEC-RIG,2013-04-10 20:00:00,
2013-04-10 15:05:00,34.4,33.3,29.99,NE,52,11.9,-999.0,95,0.00,,,0.74,SSEC-RIG,2013-04-10 20:05:00,
2013-04-10 15:10:00,34.4,33.3,29.99,NE,52,10.9,-999.0,95,0.01,,,0.75,SSEC-RIG,2013-04-10 20:10:00,
2013-04-10 15:15:00,34.4,33.3,29.99,NE,49,9.8,-999.0,94,0.00,,,0.75,SSEC-RIG,2013-04-10 20:15:00,
2013-04-10 15:20:00,34.4,33.3,29.99,NE,55,11.4,-999.0,94,0.00,,,0.75,SSEC-RIG,2013-04-10 20:20:00,
2013-04-10 15:25:00,34.5,33.4,29.99,ENE,58,12.0,16.3,95,0.00,,,0.75,SSEC-RIG,2013-04-10 20:25:00,
2013-04-10 15:30:00,34.5,33.4,29.98,NE,55,11.9,16.6,94,0.01,,,0.76,SSEC-RIG,2013-04-10 20:30:00,
2013-04-10 15:40:00,34.5,33.4,29.96,NE,50,15.2,19.2,95,0.00,,,0.76,SSEC-RIG,2013-04-10 20:40:00,
2013-04-10 15:50:00,34.6,33.5,29.94,NE,49,17.6,22.0,95,0.00,,,0.77,SSEC-RIG,2013-04-10 20:50:00,
2013-04-10 15:55:00,34.6,33.5,29.94,NE,46,17.8,22.6,95,0.00,,,0.77,SSEC-RIG,2013-04-10 20:55:00,
2013-04-10 16:00:00,34.4,33.3,29.93,NE,45,20.2,23.3,95,0.01,,,0.78,SSEC-RIG,2013-04-10 21:00:00,
2013-04-10 16:05:00,34.3,33.3,29.93,NE,45,19.8,23.0,95,0.00,,,0.78,SSEC-RIG,2013-04-10 21:05:00,
2013-04-10 16:10:00,34.3,33.3,29.92,NE,46,22.3,25.8,95,0.00,,,0.78,SSEC-RIG,2013-04-10 21:10:00,
2013-04-10 16:15:00,34.4,33.3,29.92,NE,46,21.9,26.1,95,0.00,,,0.78,SSEC-RIG,2013-04-10 21:15:00,
2013-04-10 16:20:00,34.3,33.3,29.91,NE,43,20.5,25.5,95,0.00,,,0.78,SSEC-RIG,2013-04-10 21:20:00,
2013-04-10 16:25:00,34.3,33.4,29.91,NE,50,18.9,24.1,95,0.00,,,0.78,SSEC-RIG,2013-04-10 21:25:00,
2013-04-10 16:30:00,34.4,33.5,29.91,NE,53,15.9,23.3,95,0.00,,,0.78,SSEC-RIG,2013-04-10 21:30:00,
2013-04-10 16:40:00,34.6,33.6,29.90,ENE,58,16.3,26.1,95,0.00,,,0.78,SSEC-RIG,2013-04-10 21:40:00,
2013-04-10 16:45:00,34.8,33.7,29.90,ENE,60,18.3,22.5,95,0.00,,,0.78,SSEC-RIG,2013-04-10 21:45:00,
2013-04-10 16:50:00,35.0,33.8,29.90,ENE,64,16.5,20.8,94,0.00,,,0.78,SSEC-RIG,2013-04-10 21:50:00,
2013-04-10 16:55:00,35.3,33.9,29.90,ENE,65,17.3,24.1,94,0.00,,,0.78,SSEC-RIG,2013-04-10 21:55:00,
2013-04-10 17:05:00,35.6,34.0,29.90,ENE,66,12.9,22.6,93,0.00,,,0.78,SSEC-RIG,2013-04-10 22:05:00,
2013-04-10 17:10:00,35.7,34.0,29.89,ENE,69,17.6,26.1,92,0.00,,,0.78,SSEC-RIG,2013-04-10 22:10:00,
2013-04-10 17:15:00,35.9,34.1,29.89,ENE,63,13.3,22.8,92,0.00,,,0.78,SSEC-RIG,2013-04-10 22:15:00,
2013-04-10 17:20:00,35.9,34.0,29.89,ENE,70,16.5,25.9,92,0.00,,,0.78,SSEC-RIG,2013-04-10 22:20:00,
2013-04-10 17:25:00,36.0,34.1,29.88,ENE,70,11.0,20.1,92,0.00,,,0.78,SSEC-RIG,2013-04-10 22:25:00,
2013-04-10 17:30:00,35.9,34.0,29.88,ENE,70,17.4,23.9,92,0.00,,,0.78,SSEC-RIG,2013-04-10 22:30:00,
2013-04-10 17:35:00,35.9,34.2,29.88,ENE,73,16.7,22.5,92,0.00,,,0.78,SSEC-RIG,2013-04-10 22:35:00,
2013-04-10 17:40:00,36.0,34.4,29.88,ENE,75,15.5,19.7,92,0.00,,,0.78,SSEC-RIG,2013-04-10 22:40:00,
2013-04-10 17:45:00,36.1,34.4,29.88,ENE,69,14.6,24.8,92,0.00,,,0.78,SSEC-RIG,2013-04-10 22:45:00,
2013-04-10 17:50:00,36.0,34.4,29.89,ENE,67,13.4,23.1,93,0.00,,,0.78,SSEC-RIG,2013-04-10 22:50:00,
2013-04-10 17:55:00,36.0,34.4,29.90,ENE,62,13.5,19.2,93,0.00,,,0.78,SSEC-RIG,2013-04-10 22:55:00,
2013-04-10 18:00:00,36.0,34.5,29.90,ENE,65,14.0,18.4,93,0.00,,,0.78,SSEC-RIG,2013-04-10 23:00:00,
2013-04-10 18:05:00,36.1,34.6,29.90,ENE,71,14.1,20.3,93,0.01,,,0.79,SSEC-RIG,2013-04-10 23:05:00,
2013-04-10 18:10:00,36.1,34.7,29.89,ENE,72,13.1,20.0,93,0.00,,,0.79,SSEC-RIG,2013-04-10 23:10:00,
2013-04-10 18:15:00,36.0,34.6,29.88,ENE,69,15.6,21.7,93,0.00,,,0.79,SSEC-RIG,2013-04-10 23:15:00,
2013-04-10 18:20:00,36.2,34.8,29.88,ENE,76,14.2,21.5,94,0.01,,,0.80,SSEC-RIG,2013-04-10 23:20:00,
2013-04-10 18:25:00,36.3,35.0,29.88,ENE,76,14.9,21.9,94,0.00,,,0.80,SSEC-RIG,2013-04-10 23:25:00,
2013-04-10 18:30:00,36.4,35.1,29.87,ENE,77,17.0,22.8,94,0.00,,,0.80,SSEC-RIG,2013-04-10 23:30:00,
2013-04-10 18:35:00,36.4,35.1,29.86,ENE,77,17.1,24.9,94,0.00,,,0.80,SSEC-RIG,2013-04-10 23:35:00,
2013-04-10 18:45:00,36.6,35.4,29.88,ENE,72,12.1,19.6,94,0.00,,,0.80,SSEC-RIG,2013-04-10 23:45:00,
2013-04-10 18:50:00,36.5,35.2,29.89,ENE,68,14.8,21.3,94,0.00,,,0.80,SSEC-RIG,2013-04-10 23:50:00,
2013-04-10 18:55:00,36.5,35.1,29.90,NE,55,11.9,17.0,93,0.00,,,0.80,SSEC-RIG,2013-04-10 23:55:00,
2013-04-10 19:00:00,36.4,35.0,29.91,NE,53,12.1,16.8,93,0.00,,,0.80,SSEC-RIG,2013-04-11 00:00:00,
2013-04-10 19:05:00,36.3,34.9,29.89,NE,55,16.3,20.6,93,0.00,,,0.00,SSEC-RIG,2013-04-11 00:05:00,
2013-04-10 19:10:00,36.3,34.8,29.89,ENE,61,15.4,21.3,93,0.00,,,0.00,SSEC-RIG,2013-04-11 00:10:00,
2013-04-10 19:15:00,36.4,35.0,29.88,ENE,69,13.2,18.6,94,0.00,,,0.00,SSEC-RIG,2013-04-11 00:15:00,
2013-04-10 19:20:00,36.6,35.2,29.88,ENE,72,13.0,24.9,93,0.00,,,0.00,SSEC-RIG,2013-04-11 00:20:00,
2013-04-10 19:25:00,36.6,35.0,29.87,ENE,66,14.3,21.3,93,0.00,,,0.00,SSEC-RIG,2013-04-11 00:25:00,
2013-04-10 19:30:00,36.4,34.8,29.87,ENE,60,16.1,22.2,93,0.00,,,0.00,SSEC-RIG,2013-04-11 00:30:00,
2013-04-10 19:35:00,36.3,34.6,29.86,NE,55,16.9,24.6,93,0.00,,,0.00,SSEC-RIG,2013-04-11 00:35:00,
2013-04-10 19:40:00,36.3,34.5,29.87,NE,54,14.8,22.9,92,0.00,,,0.00,SSEC-RIG,2013-04-11 00:40:00,
2013-04-10 19:45:00,36.2,34.3,29.88,ENE,57,13.8,19.7,92,0.00,,,0.00,SSEC-RIG,2013-04-11 00:45:00,
2013-04-10 19:50:00,36.2,34.2,29.90,NE,54,14.5,18.3,91,0.00,,,0.00,SSEC-RIG,2013-04-11 00:50:00,
2013-04-10 19:55:00,36.1,34.1,29.90,NE,44,13.5,18.6,91,0.00,,,0.00,SSEC-RIG,2013-04-11 00:55:00,
2013-04-10 20:05:00,35.7,33.8,29.89,NE,46,18.4,24.0,92,0.00,,,0.00,SSEC-RIG,2013-04-11 01:05:00,
2013-04-10 20:10:00,35.7,33.8,29.89,NE,48,15.2,24.0,91,0.00,,,0.00,SSEC-RIG,2013-04-11 01:10:00,
2013-04-10 20:15:00,35.7,33.5,29.89,NE,48,17.1,24.6,90,0.00,,,0.00,SSEC-RIG,2013-04-11 01:15:00,
2013-04-10 20:20:00,35.6,33.2,29.90,NE,53,17.1,24.7,90,0.00,,,0.00,SSEC-RIG,2013-04-11 01:20:00,
2013-04-10 20:25:00,35.5,32.8,29.89,ENE,58,22.3,26.2,89,0.00,,,0.00,SSEC-RIG,2013-04-11 01:25:00,
2013-04-10 20:30:00,35.5,32.8,29.90,ENE,62,18.7,23.5,89,0.00,,,0.00,SSEC-RIG,2013-04-11 01:30:00,
2013-04-10 20:35:00,35.5,32.7,29.90,ENE,63,20.1,26.5,88,0.00,,,0.00,SSEC-RIG,2013-04-11 01:35:00,
2013-04-10 20:40:00,35.6,32.7,29.90,ENE,63,17.2,24.1,88,0.00,,,0.00,SSEC-RIG,2013-04-11 01:40:00,
2013-04-10 20:45:00,35.6,32.7,29.91,ENE,60,16.7,23.0,88,0.00,,,0.00,SSEC-RIG,2013-04-11 01:45:00,
2013-04-10 20:50:00,35.5,32.7,29.91,ENE,69,14.2,22.3,88,0.00,,,0.00,SSEC-RIG,2013-04-11 01:50:00,
2013-04-10 20:55:00,35.6,32.7,29.91,ENE,67,14.7,21.3,88,0.00,,,0.00,SSEC-RIG,2013-04-11 01:55:00,
2013-04-10 21:00:00,35.6,32.8,29.92,ENE,69,13.2,18.9,88,0.00,,,0.00,SSEC-RIG,2013-04-11 02:00:00,
2013-04-10 21:05:00,35.4,32.5,29.92,ENE,65,17.8,27.1,88,0.00,,,0.00,SSEC-RIG,2013-04-11 02:05:00,
2013-04-10 21:10:00,35.4,32.6,29.92,ENE,70,15.9,25.3,88,0.00,,,0.00,SSEC-RIG,2013-04-11 02:10:00,
2013-04-10 21:15:00,35.3,32.5,29.92,ENE,65,14.7,21.4,88,0.00,,,0.00,SSEC-RIG,2013-04-11 02:15:00,
2013-04-10 21:20:00,35.3,32.6,29.92,ENE,71,15.5,23.0,89,0.00,,,0.00,SSEC-RIG,2013-04-11 02:20:00,
2013-04-10 21:25:00,35.2,32.6,29.91,ENE,69,16.0,24.0,89,0.00,,,0.00,SSEC-RIG,2013-04-11 02:25:00,
2013-04-10 21:30:00,35.1,32.7,29.90,ENE,69,15.9,25.3,89,0.00,,,0.00,SSEC-RIG,2013-04-11 02:30:00,
2013-04-10 21:35:00,35.2,32.8,29.90,ENE,70,12.9,20.8,90,0.00,,,0.00,SSEC-RIG,2013-04-11 02:35:00,
2013-04-10 21:40:00,35.1,32.9,29.89,ENE,69,11.7,20.2,90,0.00,,,0.00,SSEC-RIG,2013-04-11 02:40:00,
2013-04-10 21:45:00,35.1,32.8,29.89,ENE,65,16.9,25.7,90,0.00,,,0.00,SSEC-RIG,2013-04-11 02:45:00,
2013-04-10 21:50:00,34.9,32.8,29.88,ENE,61,15.5,23.9,91,0.00,,,0.00,SSEC-RIG,2013-04-11 02:50:00,
2013-04-10 21:55:00,34.8,32.8,29.87,ENE,59,19.7,27.2,91,0.00,,,0.00,SSEC-RIG,2013-04-11 02:55:00,
2013-04-10 22:00:00,34.8,32.8,29.88,ENE,61,17.0,23.4,91,0.00,,,0.00,SSEC-RIG,2013-04-11 03:00:00,
2013-04-10 22:05:00,34.8,32.9,29.88,ENE,67,18.6,26.3,91,0.00,,,0.00,SSEC-RIG,2013-04-11 03:05:00,
2013-04-10 22:10:00,35.1,33.1,29.89,ENE,68,12.1,18.5,91,0.00,,,0.00,SSEC-RIG,2013-04-11 03:10:00,
2013-04-10 22:15:00,35.2,33.1,29.90,ENE,66,14.5,22.9,91,0.00,,,0.00,SSEC-RIG,2013-04-11 03:15:00,
2013-04-10 22:20:00,35.2,33.2,29.90,ENE,72,15.1,24.4,91,0.00,,,0.00,SSEC-RIG,2013-04-11 03:20:00,
2013-04-10 22:25:00,35.3,33.3,29.89,ENE,69,14.7,24.8,91,0.00,,,0.00,SSEC-RIG,2013-04-11 03:25:00,
2013-04-10 22:30:00,35.3,33.4,29.89,ENE,62,14.1,25.5,92,0.01,,,0.01,SSEC-RIG,2013-04-11 03:30:00,
2013-04-10 22:40:00,35.3,33.6,29.89,ENE,71,15.5,24.3,93,0.01,,,0.02,SSEC-RIG,2013-04-11 03:40:00,
2013-04-10 22:45:00,35.3,33.8,29.89,ENE,67,13.9,20.6,93,0.01,,,0.03,SSEC-RIG,2013-04-11 03:45:00,
2013-04-10 22:50:00,35.3,33.9,29.88,ENE,68,14.1,24.3,93,0.01,,,0.04,SSEC-RIG,2013-04-11 03:50:00,
2013-04-10 22:55:00,35.2,33.9,29.88,ENE,66,15.0,21.4,94,0.00,,,0.04,SSEC-RIG,2013-04-11 03:55:00,
2013-04-10 23:05:00,35.3,34.1,29.87,ENE,66,15.6,22.7,94,0.00,,,0.05,SSEC-RIG,2013-04-11 04:05:00,
2013-04-10 23:10:00,35.4,34.3,29.87,ENE,73,14.5,23.6,95,0.01,,,0.06,SSEC-RIG,2013-04-11 04:10:00,
2013-04-10 23:15:00,35.2,34.1,29.87,ENE,71,16.4,21.2,95,0.01,,,0.07,SSEC-RIG,2013-04-11 04:15:00,
2013-04-10 23:20:00,35.3,34.2,29.87,ENE,70,19.8,27.4,95,0.00,,,0.07,SSEC-RIG,2013-04-11 04:20:00,
2013-04-10 23:30:00,35.5,34.4,29.86,ENE,75,16.2,28.3,95,0.01,,,0.09,SSEC-RIG,2013-04-11 04:30:00,
2013-04-10 23:35:00,35.4,34.3,29.86,ENE,77,15.1,23.4,95,0.01,,,0.10,SSEC-RIG,2013-04-11 04:35:00,
2013-04-10 23:40:00,35.5,34.4,29.86,ENE,71,15.4,23.6,95,0.01,,,0.11,SSEC-RIG,2013-04-11 04:40:00,
2013-04-10 23:45:00,35.5,34.3,29.86,ENE,73,17.7,23.6,94,0.01,,,0.12,SSEC-RIG,2013-04-11 04:45:00,
2013-04-10 23:50:00,35.4,34.3,29.87,ENE,72,12.9,20.3,94,0.00,,,0.12,SSEC-RIG,2013-04-11 04:50:00,
2013-04-10 23:55:00,35.4,34.2,29.86,ENE,71,15.0,24.1,94,0.01,,,0.13,SSEC-RIG,2013-04-11 04:55:00,